This is the latest recevied weather packets stored in our database for station/object DL1MX-13. If no packets are shown the sender has not sent any weather packets the latest 1 day(s).
| Time | Temp. | Humidity | Pressure | Rain* | Wind** | Luminosity | Snow |
|---|---|---|---|---|---|---|---|
| 1777998182 | 12.22° C | 87% | 1008.4 hPa | 0 mm | 2.68 m/s, 220° | - | - |
| 1777998122 | 12.78° C | 87% | 1008.4 hPa | 0 mm | 3.58 m/s, 222° | - | - |
| 1777998062 | 12.78° C | 87% | 1008.4 hPa | 0 mm | 3.58 m/s, 222° | - | - |
| 1777998002 | 12.78° C | 87% | 1008.5 hPa | 0 mm | 3.58 m/s, 222° | - | - |
| 1777997942 | 12.78° C | 87% | 1008.4 hPa | 0 mm | 2.68 m/s, 232° | - | - |
| 1777997882 | 12.78° C | 87% | 1008.4 hPa | 0 mm | 2.68 m/s, 232° | - | - |
| 1777997822 | 12.78° C | 87% | 1008.4 hPa | 0 mm | 3.13 m/s, 232° | - | - |
| 1777997762 | 12.78° C | 87% | 1008.4 hPa | 0 mm | 3.13 m/s, 232° | - | - |
| 1777997702 | 12.78° C | 87% | 1008.5 hPa | 0 mm | 3.13 m/s, 232° | - | - |
| 1777997642 | 12.78° C | 87% | 1008.4 hPa | 0 mm | 3.13 m/s, 232° | - | - |
| 1777997581 | 12.78° C | 87% | 1008.4 hPa | 0 mm | 3.13 m/s, 232° | - | - |
| 1777997522 | 12.78° C | 87% | 1008.5 hPa | 0 mm | 2.24 m/s, 215° | - | - |
| 1777997461 | 12.78° C | 87% | 1008.4 hPa | 0 mm | 2.24 m/s, 215° | - | - |
| 1777997405 | 12.78° C | 87% | 1008.4 hPa | 0 mm | 2.24 m/s, 215° | - | - |
| 1777997342 | 12.78° C | 87% | 1008.4 hPa | 0 mm | 2.24 m/s, 212° | - | - |
| 1777997282 | 12.78° C | 87% | 1008.4 hPa | 0 mm | 2.24 m/s, 212° | - | - |
| 1777997221 | 12.78° C | 87% | 1008.4 hPa | 0 mm | 1.79 m/s, 215° | - | - |
| 1777997162 | 12.78° C | 87% | 1008.4 hPa | 0 mm | 1.79 m/s, 215° | - | - |
| 1777997102 | 12.78° C | 87% | 1008.4 hPa | 0 mm | 1.79 m/s, 215° | - | - |
| 1777997042 | 12.78° C | 88% | 1008.3 hPa | 0 mm | 2.68 m/s, 215° | - | - |
| 1777996982 | 12.78° C | 88% | 1008.4 hPa | 0 mm | 2.68 m/s, 215° | - | - |
| 1777996922 | 12.78° C | 88% | 1008.4 hPa | 0 mm | 1.79 m/s, 222° | - | - |
| 1777996862 | 12.78° C | 88% | 1008.5 hPa | 0 mm | 1.79 m/s, 222° | - | - |
| 1777996802 | 12.78° C | 88% | 1008.4 hPa | 0 mm | 1.79 m/s, 222° | - | - |
| 1777996742 | 12.78° C | 88% | 1008.4 hPa | 0 mm | 1.79 m/s, 220° | - | - |
* Rain since midnight (hover to see other rain measurements)
** Current wind speed in m/s (hover to see current wind gust speed)